• In Sweden
  • List of Countries
  • For 7 days
  • Water Temperature
  • Satellite Maps
  • Weather Map
  • Weather Widgets
  • user-avatar
    Login

    Hourly Weather Sliven

    Today, 22 September, Saturday

    Time Temperature Precipitation Wind Pressure Humidity
    00:00 +19°C° 0 mm 1 mps 734 mmHg 79%
    01:00 +18°C° 0 mm 1 mps 734 mmHg 80%
    02:00 +16°C° 0 mm 1 mps 734 mmHg 85%
    03:00 +16°C° 0 mm 1 mps 734 mmHg 84%
    04:00 +16°C° 0 mm 1 mps 734 mmHg 84%
    05:00 +16°C° 0 mm 1 mps 733 mmHg 84%
    06:00 +18°C° 0 mm 1 mps 734 mmHg 77%
    07:00 +19°C° 0 mm 1 mps 734 mmHg 70%
    08:00 +21°C° 0 mm 1 mps 734 mmHg 62%
    09:00 +23°C° 0 mm 1 mps 734 mmHg 53%
    10:00 +25°C° 0 mm 1 mps 734 mmHg 44%
    11:00 +28°C° 0 mm 1 mps 734 mmHg 35%
    12:00 +29°C° 0 mm 1 mps 734 mmHg 32%
    13:00 +30°C° 0 mm 1 mps 734 mmHg 28%
    14:00 +31°C° 0 mm 1 mps 734 mmHg 25%
    15:00 +30°C° 0 mm 1 mps 734 mmHg 26%
    16:00 +30°C° 0 mm 1 mps 733 mmHg 27%
    17:00 +29°C° 0 mm 1 mps 733 mmHg 29%
    18:00 +27°C° 0 mm 1 mps 733 mmHg 34%
    19:00 +25°C° 0 mm 1 mps 733 mmHg 40%
    20:00 +22°C° 0 mm 1 mps 733 mmHg 46%
    21:00 +22°C° 0 mm 1 mps 734 mmHg 48%
    22:00 +21°C° 0 mm 1 mps 734 mmHg 50%
    23:00 +21°C° 0 mm 1 mps 734 mmHg 51%

    Tomorrow, 23 September, Sunday

    Time Temperature Precipitation Wind Pressure Humidity
    00:00 +21°C° 0 mm 1 mps 734 mmHg 51%
    01:00 +20°C° 0 mm 1 mps 734 mmHg 51%
    02:00 +20°C° 0 mm 1 mps 734 mmHg 51%
    03:00 +20°C° 0 mm 1 mps 734 mmHg 52%
    04:00 +20°C° 0 mm 1 mps 734 mmHg 54%
    05:00 +18°C° 0 mm 2 mps 734 mmHg 55%
    06:00 +19°C° 0 mm 2 mps 735 mmHg 53%
    07:00 +21°C° 0 mm 2 mps 735 mmHg 51%
    08:00 +23°C° 0 mm 2 mps 735 mmHg 49%
    09:00 +25°C° 0 mm 2 mps 736 mmHg 45%
    10:00 +26°C° 0 mm 2 mps 736 mmHg 41%
    11:00 +28°C° 0 mm 2 mps 736 mmHg 37%
    12:00 +29°C° 0 mm 2 mps 736 mmHg 35%
    13:00 +30°C° 0 mm 2 mps 736 mmHg 33%
    14:00 +31°C° 0 mm 2 mps 736 mmHg 31%
    15:00 +30°C° 0 mm 2 mps 736 mmHg 32%
    16:00 +30°C° 0 mm 2 mps 735 mmHg 34%
    17:00 +29°C° 0 mm 2 mps 735 mmHg 35%
    18:00 +27°C° 0 mm 2 mps 735 mmHg 43%
    19:00 +25°C° 0 mm 2 mps 735 mmHg 51%
    20:00 +21°C° 0 mm 2 mps 735 mmHg 59%
    21:00 +21°C° 0 mm 2 mps 735 mmHg 64%
    22:00 +20°C° 0 mm 2 mps 735 mmHg 70%
    23:00 +19°C° 0 mm 2 mps 735 mmHg 75%

    Day after tomorrow, 24 September, Monday

    Time Temperature Precipitation Wind Pressure Humidity
    00:00 +19°C° 0 mm 2 mps 735 mmHg 77%
    01:00 +19°C° 0 mm 2 mps 734 mmHg 80%
    02:00 +18°C° 0 mm 2 mps 734 mmHg 82%
    03:00 +18°C° 0 mm 2 mps 733 mmHg 83%
    04:00 +18°C° 0 mm 2 mps 733 mmHg 83%
    05:00 +18°C° 0 mm 2 mps 732 mmHg 83%
    06:00 +19°C° 0 mm 2 mps 732 mmHg 76%
    07:00 +20°C° 0 mm 2 mps 732 mmHg 69%
    08:00 +23°C° 0 mm 2 mps 732 mmHg 62%
    09:00 +25°C° 0 mm 3 mps 732 mmHg 52%
    10:00 +27°C° 0 mm 3 mps 731 mmHg 43%
    11:00 +30°C° 0 mm 4 mps 731 mmHg 34%
    12:00 +32°C° 0 mm 4 mps 731 mmHg 31%
    13:00 +33°C° 0 mm 4 mps 730 mmHg 28%
    14:00 +34°C° 0 mm 4 mps 730 mmHg 25%
    15:00 +33°C° 0 mm 5 mps 730 mmHg 27%
    16:00 +32°C° 0 mm 6 mps 730 mmHg 29%
    17:00 +30°C° 0 mm 6 mps 730 mmHg 31%
    18:00 +27°C° 0 mm 7 mps 731 mmHg 36%
    19:00 +23°C° 0 mm 8 mps 732 mmHg 40%
    20:00 +19°C° 0 mm 9 mps 732 mmHg 44%
    21:00 +18°C° 0 mm 8 mps 733 mmHg 46%
    22:00 +17°C° 0 mm 8 mps 734 mmHg 47%
    23:00 +16°C° 0 mm 7 mps 735 mmHg 48%

    25 September, Tuesday

    Time Temperature Precipitation Wind Pressure Humidity
    00:00 +15°C° 0 mm 6 mps 735 mmHg 49%
    01:00 +14°C° 0 mm 6 mps 735 mmHg 50%
    02:00 +14°C° 0 mm 6 mps 736 mmHg 51%
    03:00 +13°C° 0 mm 6 mps 736 mmHg 53%
    04:00 +13°C° 0 mm 5 mps 736 mmHg 55%
    05:00 +13°C° 0 mm 5 mps 736 mmHg 56%
    06:00 +12°C° 0.2 mm 5 mps 737 mmHg 57%
    07:00 +12°C° 0.2 mm 5 mps 737 mmHg 58%
    08:00 +12°C° 0.2 mm 4 mps 738 mmHg 58%
    09:00 +12°C° 0.1 mm 4 mps 738 mmHg 56%
    10:00 +12°C° 0.1 mm 4 mps 738 mmHg 55%
    11:00 +12°C° 0.1 mm 4 mps 739 mmHg 53%
    12:00 +13°C° 0.1 mm 4 mps 739 mmHg 49%
    13:00 +14°C° 0.1 mm 3 mps 739 mmHg 45%
    14:00 +16°C° 0.1 mm 3 mps 739 mmHg 42%
    15:00 +16°C° 0 mm 3 mps 739 mmHg 42%
    16:00 +15°C° 0 mm 4 mps 739 mmHg 43%
    17:00 +15°C° 0 mm 4 mps 738 mmHg 44%
    18:00 +13°C° 0 mm 3 mps 739 mmHg 51%
    19:00 +13°C° 0 mm 2 mps 740 mmHg 59%
    20:00 +10°C° 0 mm 2 mps 740 mmHg 67%
    21:00 +10°C° 0 mm 2 mps 741 mmHg 64%
    22:00 +10°C° 0 mm 3 mps 741 mmHg 62%
    23:00 +9°C° 0 mm 3 mps 742 mmHg 60%

    26 September, Wednesday

    Time Temperature Precipitation Wind Pressure Humidity
    00:00 +9°C° 0 mm 3 mps 742 mmHg 57%
    01:00 +8°C° 0 mm 3 mps 742 mmHg 54%
    02:00 +8°C° 0 mm 3 mps 742 mmHg 51%
    03:00 +7°C° 0 mm 3 mps 743 mmHg 53%
    04:00 +7°C° 0 mm 3 mps 743 mmHg 55%
    05:00 +5°C° 0 mm 3 mps 743 mmHg 56%
    06:00 +6°C° 0 mm 5 mps 744 mmHg 54%
    07:00 +7°C° 0 mm 6 mps 744 mmHg 51%
    08:00 +8°C° 0 mm 7 mps 745 mmHg 49%
    09:00 +9°C° 0 mm 7 mps 745 mmHg 43%
    10:00 +11°C° 0 mm 7 mps 745 mmHg 37%
    11:00 +12°C° 0 mm 8 mps 745 mmHg 31%
    12:00 +13°C° 0 mm 8 mps 745 mmHg 29%
    13:00 +13°C° 0 mm 8 mps 744 mmHg 27%
    14:00 +15°C° 0 mm 8 mps 744 mmHg 25%
    15:00 +14°C° 0 mm 7 mps 744 mmHg 27%
    16:00 +14°C° 0 mm 7 mps 744 mmHg 29%
    17:00 +12°C° 0 mm 7 mps 744 mmHg 30%
    18:00 +11°C° 0 mm 6 mps 744 mmHg 34%
    19:00 +10°C° 0 mm 5 mps 744 mmHg 37%
    20:00 +8°C° 0 mm 4 mps 744 mmHg 41%
    21:00 +9°C° 0 mm 3 mps 744 mmHg 43%
    22:00 +8°C° 0 mm 3 mps 744 mmHg 45%
    23:00 +7°C° 0 mm 3 mps 744 mmHg 47%

    27 September, Thursday

    Time Temperature Precipitation Wind Pressure Humidity
    00:00 +7°C° 0 mm 3 mps 744 mmHg 48%
    01:00 +7°C° 0 mm 3 mps 744 mmHg 50%
    02:00 +5°C° 0 mm 3 mps 743 mmHg 51%
    03:00 +5°C° 0 mm 3 mps 743 mmHg 52%
    04:00 +5°C° 0 mm 3 mps 743 mmHg 53%
    05:00 +4°C° 0 mm 3 mps 743 mmHg 54%
    06:00 +7°C° 0 mm 3 mps 743 mmHg 50%
    07:00 +7°C° 0 mm 4 mps 742 mmHg 46%
    08:00 +8°C° 0 mm 4 mps 742 mmHg 43%
    09:00 +11°C° 0 mm 4 mps 742 mmHg 39%
    10:00 +13°C° 0 mm 4 mps 742 mmHg 36%
    11:00 +15°C° 0 mm 4 mps 742 mmHg 33%
    12:00 +17°C° 0 mm 4 mps 741 mmHg 31%
    13:00 +18°C° 0 mm 4 mps 741 mmHg 29%
    14:00 +19°C° 0 mm 4 mps 740 mmHg 28%
    15:00 +18°C° 0 mm 4 mps 740 mmHg 29%
    16:00 +18°C° 0 mm 4 mps 739 mmHg 31%
    17:00 +18°C° 0 mm 4 mps 739 mmHg 32%
    18:00 +16°C° 0 mm 3 mps 738 mmHg 38%
    19:00 +14°C° 0 mm 2 mps 738 mmHg 44%
    20:00 +11°C° 0 mm 1 mps 738 mmHg 50%
    21:00 +11°C° 0 mm 1 mps 738 mmHg 52%
    22:00 +11°C° 0 mm 1 mps 738 mmHg 53%
    23:00 +10°C° 0 mm 1 mps 737 mmHg 55%
    Show more